{"data":{"norad_id":59186,"intl_designator":"2024-045J","name":"STARLINK-31403","alt_names":[],"object_type":"PAYLOAD","status":"ACTIVE","operator":null,"country":"US","launch_date":"2024-03-10","launch_site_code":"AFETR","launch_vehicle":null,"mission":null,"orbit_class":"UNKNOWN","rcs_meters":null,"size_class":null,"mass_kg":null,"dimensions":null,"purposes":["comms"],"wikipedia_slug":null,"has_3d_model":false,"image_url":null,"decayed_at":null,"tle_current":{"epoch":"2026-09-20T17:13:40.437696Z","epoch_age_seconds":140049,"freshness":"FRESH","line1":"1 59186U 24045J   26263.71782914  .00000286  00000+0  19924-4 0  9996","line2":"2 59186  43.0044  49.7019 0001005 275.3904  84.6833 15.27579249143171","mean_motion":15.27579249,"eccentricity":0.0001005,"inclination_deg":43.0044,"raan_deg":49.7019,"arg_perigee_deg":275.3904,"mean_anomaly_deg":84.6833,"bstar":1.9924e-5,"rev_number":14317,"period_min":94.26679505778,"perigee_km":482.36179537609,"apogee_km":483.7408942334,"semimajor_km":6861.1883448047,"source":"CELESTRAK","updated_at":"2026-09-21T09:00:34.063223Z"}}}